AJISAI (EGS) (16908 NORAD) Tracking and Keplerian Element Data

This shows tracking and keplerian element data for the satellite.

Feedback or suggestion? Click here.




ElementValue
Catalog16908
NameAJISAI (EGS)
Epoch Orbit26431
Epoch Day258.94940067
Epoch Year2021
RAAN83.1001
Inclination50.0086
Eccentricity0.0011554
Argument of Perigee83.6394
Mean Anonmoly81.1666
Mean Motion12.44494517
Decay Rate-9.3E-07
L11 16908U 86061A 21258.94940067 -.00000093 00000-0 34870-4 0 9991
L22 16908 50.0086 83.1001 0011554 83.6394 81.1666 12.44494517264312

Live tracking and technical data element details for AJISAI (EGS) (NORAD 16908). AJISAI (EGS) can be tracked NOW for your location showing map with azimuth and elevation plus other details from your city location.

Track the satellite on the map from your city or location and see movement details for azimuth, elevation, latitude, longitude, range, height, and movement on the map or in text.







IsCatalogInMostPopularTable: catalog: 16908, numindb: 658
Update: records affected: 1



GetName: 16908 AJISAI (EGS)

Hit Count: updated at: Sat, 18 Sep 2021 11:16:05 GMT